Location: Ferris
(32.5340°N, 96.6656°W)
Time: 11:22:04
(UTC+00:00)

Cosmos 1869 - Pass Details

Date: 11 February 2026
Orbit: 447 x 473 km, 82.5° (Epoch: 7 March)

Event Time Altitude Azimuth Distance (km) Brightness Sun altitude
Rises 12:27:14 0° 185° (S) 2,507 6.8 -10.3°
Reaches altitude 10° 12:29:19 10° 185° (S) 1,631 5.8 -9.8°
Maximum altitude 12:32:53 90° 109° (ESE) 475 3.0 -9.1°
Drops below altitude 10° 12:36:27 10° 6° (N) 1,627 5.7 -8.3°
Sets 12:38:31 0° 7° (N) 2,502 6.6 -7.9°
